| time (UTC) | temp C | wind direction | speed KPH | gust KPH | rain 1hr cm | rain 24hr cm | rain mn cm | humidity % | barometer mb |
| 20260509224431 | 15 | 144 | 1.6 | 6.4 | 0.00 | 0.00 | 0.00 | 70 | 1004.4 |
| 20260509223929 | 15 | 285 | 3.2 | 4.8 | 0.00 | 0.00 | 0.00 | 68 | 1004.4 |
| 20260509223425 | 15 | 259 | 0.0 | 1.6 | 0.00 | 0.00 | 0.00 | 69 | 1004.6 |
| 20260509222924 | 15 | 244 | 3.2 | 4.8 | 0.00 | 0.00 | 0.00 | 69 | 1004.5 |
| 20260509222424 | 15 | 186 | 8.0 | 12.9 | 0.00 | 0.00 | 0.00 | 69 | 1004.4 |
| 20260509221920 | 15 | 248 | 1.6 | 3.2 | 0.00 | 0.00 | 0.00 | 69 | 1004.6 |
| 20260509221417 | 15 | 257 | 6.4 | 11.3 | 0.00 | 0.00 | 0.00 | 69 | 1004.5 |
| 20260509220912 | 15 | 258 | 3.2 | 6.4 | 0.00 | 0.00 | 0.00 | 68 | 1004.6 |
| 20260509220408 | 15 | 245 | 1.6 | 4.8 | 0.00 | 0.00 | 0.00 | 68 | 1004.5 |
| 20260509215904 | 15 | 241 | 3.2 | 4.8 | 0.00 | 0.00 | 0.00 | 70 | 1004.3 |
| 20260509215400 | 15 | 253 | 0.0 | 1.6 | 0.00 | 0.00 | 0.00 | 69 | 1004.5 |
| 20260509214858 | 15 | 239 | 9.7 | 11.3 | 0.00 | 0.00 | 0.00 | 68 | 1004.7 |
| 20260509214355 | 15 | 254 | 6.4 | 6.4 | 0.00 | 0.00 | 0.00 | 67 | 1004.6 |
| 20260509213852 | 15 | 223 | 4.8 | 6.4 | 0.00 | 0.00 | 0.00 | 69 | 1004.8 |
| 20260509213347 | 15 | 241 | 9.7 | 11.3 | 0.00 | 0.00 | 0.00 | 68 | 1004.9 |
| 20260509212845 | 15 | 246 | 3.2 | 4.8 | 0.00 | 0.00 | 0.00 | 67 | 1004.8 |
| 20260509212343 | 15 | 241 | 9.7 | 12.9 | 0.00 | 0.00 | 0.00 | 67 | 1004.9 |
| 20260509211838 | 16 | 248 | 11.3 | 12.9 | 0.00 | 0.00 | 0.00 | 67 | 1004.9 |
| 20260509211334 | 15 | 204 | 6.4 | 12.9 | 0.00 | 0.00 | 0.00 | 69 | 1004.9 |
| 20260509210831 | 15 | 236 | 8.0 | 11.3 | 0.00 | 0.00 | 0.00 | 68 | 1004.9 |
| 20260509210329 | 15 | 237 | 3.2 | 4.8 | 0.00 | 0.00 | 0.00 | 68 | 1005.1 |
| 20260509205828 | 15 | 248 | 1.6 | 3.2 | 0.00 | 0.00 | 0.00 | 68 | 1004.8 |
| 20260509205323 | 16 | 255 | 6.4 | 11.3 | 0.00 | 0.00 | 0.00 | 67 | 1004.8 |
| 20260509204820 | 16 | 262 | 9.7 | 11.3 | 0.00 | 0.00 | 0.00 | 66 | 1005.1 |
| 20260509204316 | 15 | 242 | 3.2 | 4.8 | 0.00 | 0.00 | 0.00 | 67 | 1004.9 |
| 20260509203812 | 15 | 234 | 8.0 | 12.9 | 0.00 | 0.00 | 0.00 | 67 | 1004.9 |
| 20260509203309 | 16 | 234 | 9.7 | 12.9 | 0.00 | 0.00 | 0.00 | 65 | 1005.0 |
| 20260509202806 | 16 | 237 | 6.4 | 6.4 | 0.00 | 0.00 | 0.00 | 65 | 1004.8 |
| 20260509202306 | 16 | 154 | 8.0 | 14.5 | 0.00 | 0.00 | 0.00 | 64 | 1004.8 |
| 20260509201801 | 16 | 239 | 4.8 | 6.4 | 0.00 | 0.00 | 0.00 | 62 | 1004.7 |
| 20260509201258 | 16 | 212 | 1.6 | 3.2 | 0.00 | 0.00 | 0.00 | 62 | 1004.9 |
| 20260509200754 | 17 | 257 | 6.4 | 9.7 | 0.00 | 0.00 | 0.00 | 59 | 1005.2 |
| 20260509200250 | 17 | 233 | 9.7 | 14.5 | 0.00 | 0.00 | 0.00 | 58 | 1005.2 |
| 20260509195746 | 17 | 237 | 4.8 | 6.4 | 0.00 | 0.00 | 0.00 | 59 | 1005.0 |
| 20260509195242 | 18 | 244 | 9.7 | 14.5 | 0.00 | 0.00 | 0.00 | 56 | 1004.7 |
| 20260509194736 | 17 | 150 | 6.4 | 14.5 | 0.00 | 0.00 | 0.00 | 57 | 1004.8 |
| 20260509194233 | 17 | 270 | 6.4 | 11.3 | 0.00 | 0.00 | 0.00 | 54 | 1004.8 |
| 20260509193730 | 17 | 252 | 1.6 | 1.6 | 0.00 | 0.00 | 0.00 | 54 | 1004.8 |
| 20260509193229 | 17 | 231 | 3.2 | 4.8 | 0.00 | 0.00 | 0.00 | 56 | 1004.7 |
| 20260509192726 | 17 | 260 | 3.2 | 4.8 | 0.00 | 0.00 | 0.00 | 52 | 1004.9 |
| 20260509192221 | 17 | 267 | 6.4 | 12.9 | 0.00 | 0.00 | 0.00 | 51 | 1005.0 |
| 20260509191716 | 18 | 233 | 9.7 | 11.3 | 0.00 | 0.00 | 0.00 | 46 | 1005.1 |
| 20260509191213 | 17 | 241 | 1.6 | 4.8 | 0.00 | 0.00 | 0.00 | 47 | 1005.0 |
| 20260509190709 | 16 | 227 | 6.4 | 9.7 | 0.00 | 0.00 | 0.00 | 48 | 1005.5 |
| 20260509190206 | 17 | 177 | 11.3 | 12.9 | 0.00 | 0.00 | 0.00 | 45 | 1005.3 |
| 20260509185704 | 18 | 92 | 6.4 | 11.3 | 0.00 | 0.00 | 0.00 | 46 | 1005.2 |
| 20260509185200 | 18 | 175 | 4.8 | 6.4 | 0.00 | 0.00 | 0.00 | 44 | 1005.4 |
| 20260509184658 | 17 | 245 | 6.4 | 6.4 | 0.00 | 0.00 | 0.00 | 43 | 1005.6 |
| 20260509184154 | 18 | 252 | 3.2 | 4.8 | 0.00 | 0.00 | 0.00 | 43 | 1005.3 |
| 20260509183651 | 17 | 247 | 6.4 | 9.7 | 0.00 | 0.00 | 0.00 | 44 | 1005.5 |
| 20260509183146 | 18 | 248 | 9.7 | 12.9 | 0.00 | 0.00 | 0.00 | 44 | 1005.4 |
| 20260509182642 | 18 | 243 | 6.4 | 9.7 | 0.00 | 0.00 | 0.00 | 49 | 1005.5 |
| 20260509182139 | 17 | 187 | 3.2 | 4.8 | 0.00 | 0.00 | 0.00 | 47 | 1005.6 |
| 20260509181637 | 17 | 257 | 4.8 | 6.4 | 0.00 | 0.00 | 0.00 | 47 | 1005.6 |
| 20260509181135 | 16 | 241 | 6.4 | 11.3 | 0.00 | 0.00 | 0.00 | 50 | 1005.7 |
| 20260509180631 | 16 | 235 | 8.0 | 9.7 | 0.00 | 0.00 | 0.00 | 50 | 1005.6 |
| 20260509180128 | 16 | 251 | 3.2 | 3.2 | 0.00 | 0.00 | 0.00 | 48 | 1005.7 |
| 20260509175623 | 17 | 258 | 1.6 | 3.2 | 0.00 | 0.00 | 0.00 | 49 | 1005.7 |
| 20260509175121 | 17 | 235 | 8.0 | 9.7 | 0.00 | 0.00 | 0.00 | 52 | 1005.7 |
| 20260509174616 | 16 | 210 | 1.6 | 3.2 | 0.00 | 0.00 | 0.00 | 52 | 1005.7 |
| 20260509174112 | 17 | 242 | 3.2 | 4.8 | 0.00 | 0.00 | 0.00 | 49 | 1005.9 |
| 20260509173607 | 17 | 247 | 6.4 | 6.4 | 0.00 | 0.00 | 0.00 | 46 | 1005.9 |
| 20260509173103 | 17 | 236 | 4.8 | 11.3 | 0.00 | 0.00 | 0.00 | 50 | 1006.0 |
| 20260509172600 | 17 | 241 | 8.0 | 11.3 | 0.00 | 0.00 | 0.00 | 48 | 1006.1 |
| 20260509172056 | 17 | 237 | 6.4 | 9.7 | 0.00 | 0.00 | 0.00 | 49 | 1006.0 |
| 20260509171552 | 17 | 242 | 6.4 | 9.7 | 0.00 | 0.00 | 0.00 | 48 | 1006.1 |
| 20260509171048 | 18 | 245 | 3.2 | 3.2 | 0.00 | 0.00 | 0.00 | 48 | 1006.2 |
| 20260509170545 | 17 | 247 | 9.7 | 12.9 | 0.00 | 0.00 | 0.00 | 47 | 1006.2 |
| 20260509170041 | 17 | 226 | 0.0 | 1.6 | 0.00 | 0.00 | 0.00 | 53 | 1006.3 |
| 20260509165540 | 17 | 236 | 6.4 | 9.7 | 0.00 | 0.00 | 0.00 | 48 | 1006.2 |
| 20260509165035 | 17 | 232 | 6.4 | 9.7 | 0.00 | 0.00 | 0.00 | 50 | 1006.3 |
| 20260509164531 | 17 | 238 | 3.2 | 9.7 | 0.00 | 0.00 | 0.00 | 47 | 1006.4 |
| 20260509164027 | 17 | 236 | 6.4 | 9.7 | 0.00 | 0.00 | 0.00 | 49 | 1006.5 |
| 20260509163525 | 16 | 261 | 3.2 | 3.2 | 0.00 | 0.00 | 0.00 | 50 | 1006.4 |
| 20260509163020 | 17 | 176 | 3.2 | 4.8 | 0.00 | 0.00 | 0.00 | 44 | 1006.7 |
| 20260509162518 | 17 | 269 | 9.7 | 12.9 | 0.00 | 0.00 | 0.00 | 44 | 1006.8 |
| 20260509162014 | 16 | 241 | 3.2 | 4.8 | 0.00 | 0.00 | 0.00 | 46 | 1007.1 |
| 20260509161511 | 17 | 248 | 3.2 | 4.8 | 0.00 | 0.00 | 0.00 | 43 | 1006.7 |
| 20260509161011 | 17 | 149 | 0.0 | 1.6 | 0.00 | 0.00 | 0.00 | 44 | 1006.9 |
| 20260509160506 | 17 | 241 | 6.4 | 9.7 | 0.00 | 0.00 | 0.00 | 44 | 1007.1 |
| 20260509160002 | 16 | 233 | 1.6 | 3.2 | 0.00 | 0.00 | 0.00 | 48 | 1007.3 |
| 20260509155459 | 16 | 149 | 6.4 | 9.7 | 0.00 | 0.00 | 0.00 | 47 | 1007.3 |
| 20260509154955 | 16 | 243 | 6.4 | 6.4 | 0.00 | 0.00 | 0.00 | 46 | 1007.5 |
| 20260509154451 | 16 | 243 | 4.8 | 6.4 | 0.00 | 0.00 | 0.00 | 46 | 1007.3 |
| 20260509153949 | 16 | 242 | 4.8 | 4.8 | 0.00 | 0.00 | 0.00 | 48 | 1007.4 |
| 20260509153445 | 16 | 246 | 4.8 | 4.8 | 0.00 | 0.00 | 0.00 | 46 | 1007.5 |
| 20260509152943 | 16 | 182 | 4.8 | 9.7 | 0.00 | 0.00 | 0.00 | 46 | 1007.6 |
| 20260509152438 | 16 | 247 | 3.2 | 3.2 | 0.00 | 0.00 | 0.00 | 45 | 1007.7 |
| 20260509151936 | 17 | 166 | 3.2 | 3.2 | 0.00 | 0.00 | 0.00 | 46 | 1007.7 |
| 20260509151432 | 16 | 238 | 3.2 | 4.8 | 0.00 | 0.00 | 0.00 | 45 | 1007.6 |
| 20260509150930 | 16 | 251 | 3.2 | 6.4 | 0.00 | 0.00 | 0.00 | 45 | 1007.7 |
| 20260509150427 | 16 | 239 | 4.8 | 4.8 | 0.00 | 0.00 | 0.00 | 47 | 1007.9 |
| 20260509145925 | 16 | 244 | 9.7 | 11.3 | 0.00 | 0.00 | 0.00 | 43 | 1007.9 |
| 20260509145425 | 16 | 254 | 3.2 | 4.8 | 0.00 | 0.00 | 0.00 | 44 | 1007.9 |
| 20260509144921 | 15 | 226 | 4.8 | 6.4 | 0.00 | 0.00 | 0.00 | 45 | 1008.0 |
| 20260509144418 | 15 | 131 | 8.0 | 11.3 | 0.00 | 0.00 | 0.00 | 44 | 1008.1 |
| 20260509143915 | 15 | 169 | 3.2 | 9.7 | 0.00 | 0.00 | 0.00 | 47 | 1008.1 |
| 20260509143412 | 15 | 237 | 6.4 | 6.4 | 0.00 | 0.00 | 0.00 | 45 | 1008.2 |
| 20260509142908 | 15 | 185 | 8.0 | 11.3 | 0.00 | 0.00 | 0.00 | 46 | 1008.2 |
| 20260509142405 | 15 | 168 | 6.4 | 9.7 | 0.00 | 0.00 | 0.00 | 45 | 1008.4 |
| 20260509141901 | 15 | 212 | 0.0 | 1.6 | 0.00 | 0.00 | 0.00 | 48 | 1008.3 |
| 20260509141358 | 15 | 255 | 4.8 | 6.4 | 0.00 | 0.00 | 0.00 | 46 | 1008.4 |
| 20260509140854 | 15 | 260 | 3.2 | 3.2 | 0.00 | 0.00 | 0.00 | 43 | 1008.3 |
| 20260509140351 | 15 | 236 | 4.8 | 6.4 | 0.00 | 0.00 | 0.00 | 45 | 1008.4 |
| 20260509135849 | 14 | 239 | 1.6 | 4.8 | 0.00 | 0.00 | 0.00 | 47 | 1008.3 |
| 20260509135347 | 13 | 239 | 6.4 | 6.4 | 0.00 | 0.00 | 0.00 | 45 | 1008.6 |
| 20260509134844 | 13 | 251 | 3.2 | 4.8 | 0.00 | 0.00 | 0.00 | 43 | 1008.5 |
| 20260509134341 | 13 | 189 | 1.6 | 3.2 | 0.00 | 0.00 | 0.00 | 46 | 1008.4 |
| 20260509133837 | 13 | 279 | 1.6 | 3.2 | 0.00 | 0.00 | 0.00 | 45 | 1008.6 |
| 20260509133334 | 13 | 239 | 4.8 | 4.8 | 0.00 | 0.00 | 0.00 | 44 | 1008.6 |
| 20260509132834 | 13 | 261 | 1.6 | 1.6 | 0.00 | 0.00 | 0.00 | 46 | 1008.7 |
| 20260509132331 | 12 | 242 | 9.7 | 11.3 | 0.00 | 0.00 | 0.00 | 44 | 1008.5 |
| 20260509131828 | 13 | 220 | 1.6 | 3.2 | 0.00 | 0.00 | 0.00 | 46 | 1008.6 |
| 20260509131325 | 12 | 243 | 4.8 | 4.8 | 0.00 | 0.00 | 0.00 | 46 | 1008.4 |
| 20260509130821 | 12 | 237 | 6.4 | 9.7 | 0.00 | 0.00 | 0.00 | 44 | 1008.6 |
| 20260509130317 | 12 | 188 | 1.6 | 3.2 | 0.00 | 0.00 | 0.00 | 46 | 1008.7 |
| 20260509125814 | 12 | 270 | 8.0 | 11.3 | 0.00 | 0.00 | 0.00 | 44 | 1008.6 |
| 20260509125310 | 12 | 241 | 4.8 | 4.8 | 0.00 | 0.00 | 0.00 | 43 | 1008.7 |
| 20260509124807 | 12 | 79 | 6.4 | 9.7 | 0.00 | 0.00 | 0.00 | 43 | 1008.5 |
| 20260509124303 | 12 | 241 | 1.6 | 3.2 | 0.00 | 0.00 | 0.00 | 45 | 1008.5 |
| 20260509123802 | 12 | 260 | 3.2 | 4.8 | 0.00 | 0.00 | 0.00 | 45 | 1008.5 |
| 20260509123259 | 12 | 235 | 4.8 | 6.4 | 0.00 | 0.00 | 0.00 | 47 | 1008.6 |
| 20260509122754 | 11 | 189 | 3.2 | 6.4 | 0.00 | 0.00 | 0.00 | 48 | 1008.7 |
| 20260509122251 | 11 | 243 | 1.6 | 3.2 | 0.00 | 0.00 | 0.00 | 47 | 1008.8 |
| 20260509121748 | 11 | 237 | 4.8 | 4.8 | 0.00 | 0.00 | 0.00 | 48 | 1008.8 |
| 20260509121245 | 11 | 244 | 1.6 | 3.2 | 0.00 | 0.00 | 0.00 | 47 | 1008.9 |
| 20260509120743 | 11 | 237 | 1.6 | 3.2 | 0.00 | 0.00 | 0.00 | 49 | 1008.8 |
| 20260509120241 | 10 | 225 | 1.6 | 3.2 | 0.00 | 0.00 | 0.00 | 53 | 1008.9 |
| 20260509115739 | 10 | 244 | 4.8 | 6.4 | 0.00 | 0.00 | 0.00 | 52 | 1008.7 |
| 20260509115235 | 10 | 226 | 1.6 | 1.6 | 0.00 | 0.00 | 0.00 | 55 | 1008.9 |
| 20260509114734 | 9 | 242 | 0.0 | 1.6 | 0.00 | 0.00 | 0.00 | 54 | 1009.0 |
| 20260509114232 | 9 | 242 | 1.6 | 1.6 | 0.00 | 0.00 | 0.00 | 54 | 1008.8 |
| 20260509113731 | 8 | 238 | 1.6 | 1.6 | 0.00 | 0.00 | 0.00 | 55 | 1008.8 |
| 20260509113227 | 8 | 261 | 0.0 | 1.6 | 0.00 | 0.00 | 0.00 | 57 | 1008.9 |
| 20260509112724 | 8 | 247 | 1.6 | 1.6 | 0.00 | 0.00 | 0.00 | 60 | 1008.8 |
| 20260509112221 | 8 | 253 | 1.6 | 1.6 | 0.00 | 0.00 | 0.00 | 57 | 1008.9 |
| 20260509111718 | 8 | 239 | 4.8 | 4.8 | 0.00 | 0.00 | 0.00 | 59 | 1008.7 |
| 20260509111215 | 7 | 251 | 3.2 | 3.2 | 0.00 | 0.00 | 0.00 | 59 | 1008.7 |
| 20260509110713 | 7 | 256 | 0.0 | 1.6 | 0.00 | 0.00 | 0.00 | 61 | 1008.9 |
| 20260509110209 | 7 | 253 | 0.0 | 0.0 | 0.00 | 0.00 | 0.00 | 61 | 1008.7 |
| 20260509105707 | 7 | 259 | 1.6 | 1.6 | 0.00 | 0.00 | 0.00 | 62 | 1008.6 |
| 20260509105204 | 6 | 261 | 1.6 | 3.2 | 0.00 | 0.00 | 0.00 | 63 | 1008.8 |
| 20260509104701 | 6 | 257 | 0.0 | 0.0 | 0.00 | 0.00 | 0.00 | 65 | 1008.6 |
| 20260509104158 | 6 | 213 | 1.6 | 3.2 | 0.00 | 0.00 | 0.00 | 65 | 1008.5 |
| 20260509103656 | 6 | 270 | 1.6 | 1.6 | 0.00 | 0.00 | 0.00 | 66 | 1008.4 |
| 20260509103153 | 5 | 229 | 0.0 | 1.6 | 0.00 | 0.00 | 0.00 | 66 | 1008.5 |
| 20260509102651 | 5 | 256 | 0.0 | 0.0 | 0.00 | 0.00 | 0.00 | 69 | 1008.4 |
| 20260509102148 | 5 | 223 | 3.2 | 3.2 | 0.00 | 0.00 | 0.00 | 69 | 1008.5 |
| 20260509101644 | 5 | 239 | 0.0 | 1.6 | 0.00 | 0.00 | 0.00 | 71 | 1008.6 |
| 20260509101141 | 4 | 219 | 0.0 | 0.0 | 0.00 | 0.00 | 0.00 | 72 | 1008.7 |
| 20260509100638 | 4 | 216 | 0.0 | 0.0 | 0.00 | 0.00 | 0.00 | 73 | 1008.5 |
| 20260509100135 | 3 | 194 | 0.0 | 1.6 | 0.00 | 0.00 | 0.00 | 74 | 1008.5 |
| 20260509095632 | 3 | 240 | 0.0 | 0.0 | 0.00 | 0.00 | 0.00 | 76 | 1008.6 |
| 20260509095129 | 3 | 239 | 0.0 | 0.0 | 0.00 | 0.00 | 0.00 | 77 | 1008.6 |
| 20260509094626 | 3 | 239 | 0.0 | 0.0 | 0.00 | 0.00 | 0.00 | 77 | 1008.5 |
| 20260509094123 | 3 | 240 | 0.0 | 1.6 | 0.00 | 0.00 | 0.00 | 77 | 1008.7 |
| 20260509093622 | 2 | 244 | 0.0 | 1.6 | 0.00 | 0.00 | 0.00 | 78 | 1008.7 |
| 20260509093118 | 2 | 245 | 0.0 | 0.0 | 0.00 | 0.00 | 0.00 | 79 | 1008.8 |
| 20260509092616 | 2 | 246 | 0.0 | 0.0 | 0.00 | 0.00 | 0.00 | 79 | 1008.6 |
| 20260509092114 | 2 | 246 | 0.0 | 0.0 | 0.00 | 0.00 | 0.00 | 79 | 1008.6 |
| 20260509091612 | 2 | 247 | 0.0 | 0.0 | 0.00 | 0.00 | 0.00 | 79 | 1008.6 |
| 20260509091108 | 2 | 247 | 0.0 | 0.0 | 0.00 | 0.00 | 0.00 | 79 | 1008.7 |
| 20260509090606 | 2 | 247 | 0.0 | 0.0 | 0.00 | 0.00 | 0.00 | 79 | 1008.5 |
| 20260509085600 | 2 | 246 | 0.0 | 1.6 | 0.00 | 0.00 | 0.00 | 77 | 1008.9 |
| 20260509085056 | 2 | 247 | 0.0 | 1.6 | 0.00 | 0.00 | 0.00 | 78 | 1008.8 |
| 20260509084553 | 2 | 247 | 0.0 | 0.0 | 0.00 | 0.00 | 0.00 | 79 | 1008.8 |
| 20260509084050 | 1 | 247 | 0.0 | 0.0 | 0.00 | 0.00 | 0.00 | 80 | 1008.8 |
| 20260509083548 | 1 | 247 | 0.0 | 0.0 | 0.00 | 0.00 | 0.00 | 80 | 1008.9 |
| 20260509083044 | 2 | 247 | 0.0 | 0.0 | 0.00 | 0.00 | 0.00 | 79 | 1008.9 |
| 20260509082542 | 1 | 247 | 0.0 | 0.0 | 0.00 | 0.00 | 0.00 | 79 | 1009.0 |
| 20260509082039 | 2 | 247 | 0.0 | 0.0 | 0.00 | 0.00 | 0.00 | 79 | 1008.8 |
| 20260509081536 | 1 | 247 | 0.0 | 0.0 | 0.00 | 0.00 | 0.00 | 79 | 1009.0 |
| 20260509081032 | 1 | 247 | 0.0 | 0.0 | 0.00 | 0.00 | 0.00 | 80 | 1009.0 |
| 20260509080531 | 1 | 247 | 0.0 | 0.0 | 0.00 | 0.00 | 0.00 | 81 | 1009.0 |
| 20260509080029 | 1 | 247 | 0.0 | 0.0 | 0.00 | 0.00 | 0.00 | 81 | 1009.0 |
| 20260509075525 | 1 | 247 | 0.0 | 0.0 | 0.00 | 0.00 | 0.00 | 82 | 1009.2 |
| 20260509075024 | 1 | 247 | 0.0 | 0.0 | 0.00 | 0.00 | 0.00 | 83 | 1009.3 |
| 20260509074520 | 1 | 247 | 0.0 | 0.0 | 0.00 | 0.00 | 0.00 | 82 | 1009.2 |
| 20260509074017 | 1 | 247 | 0.0 | 0.0 | 0.00 | 0.00 | 0.00 | 80 | 1009.3 |
| 20260509073513 | 1 | 247 | 0.0 | 0.0 | 0.00 | 0.00 | 0.00 | 78 | 1009.1 |
| 20260509073010 | 1 | 247 | 0.0 | 0.0 | 0.00 | 0.00 | 0.00 | 78 | 1009.0 |
| 20260509072506 | 1 | 247 | 0.0 | 0.0 | 0.00 | 0.00 | 0.00 | 78 | 1009.2 |
| 20260509072003 | 2 | 247 | 0.0 | 0.0 | 0.00 | 0.00 | 0.00 | 77 | 1009.3 |
| 20260509071500 | 2 | 247 | 0.0 | 0.0 | 0.00 | 0.00 | 0.00 | 76 | 1009.1 |
| 20260509070958 | 2 | 247 | 0.0 | 0.0 | 0.00 | 0.00 | 0.00 | 75 | 1009.2 |
| 20260509070454 | 2 | 247 | 0.0 | 0.0 | 0.00 | 0.00 | 0.00 | 77 | 1009.1 |
| 20260509065950 | 2 | 248 | 0.0 | 0.0 | 0.00 | 0.00 | 0.00 | 78 | 1009.2 |
| 20260509065446 | 2 | 248 | 0.0 | 0.0 | 0.00 | 0.00 | 0.00 | 78 | 1009.3 |
| 20260509064942 | 2 | 247 | 1.6 | 1.6 | 0.00 | 0.00 | 0.00 | 78 | 1009.0 |
| 20260509064440 | 1 | 253 | 0.0 | 0.0 | 0.00 | 0.00 | 0.00 | 82 | 1009.2 |
| 20260509063938 | 0 | 253 | 0.0 | 0.0 | 0.00 | 0.00 | 0.00 | 84 | 1009.2 |
| 20260509063433 | 0 | 253 | 0.0 | 0.0 | 0.00 | 0.00 | 0.00 | 86 | 1009.4 |
| 20260509062930 | 0 | 253 | 0.0 | 0.0 | 0.00 | 0.00 | 0.00 | 83 | 1009.5 |
| 20260509062428 | 0 | 253 | 0.0 | 0.0 | 0.00 | 0.00 | 0.00 | 84 | 1009.4 |
| 20260509061925 | 0 | 253 | 0.0 | 0.0 | 0.00 | 0.00 | 0.00 | 85 | 1009.5 |
| 20260509061423 | 0 | 253 | 0.0 | 0.0 | 0.00 | 0.00 | 0.00 | 86 | 1009.5 |
| 20260509060919 | 0 | 253 | 0.0 | 0.0 | 0.00 | 0.00 | 0.00 | 86 | 1009.7 |
| 20260509060417 | 1 | 253 | 0.0 | 0.0 | 0.00 | 0.00 | 0.00 | 83 | 1009.8 |
| 20260509055911 | 1 | 253 | 0.0 | 0.0 | 0.00 | 0.00 | 0.00 | 79 | 1009.8 |
| 20260509055407 | 1 | 253 | 0.0 | 0.0 | 0.00 | 0.00 | 0.00 | 80 | 1009.7 |
| 20260509054904 | 0 | 253 | 0.0 | 0.0 | 0.00 | 0.00 | 0.00 | 82 | 1009.9 |
| 20260509054401 | 0 | 253 | 0.0 | 0.0 | 0.00 | 0.00 | 0.00 | 82 | 1009.8 |
| 20260509053859 | 0 | 253 | 0.0 | 0.0 | 0.00 | 0.00 | 0.00 | 83 | 1009.9 |
| 20260509053356 | 0 | 253 | 0.0 | 0.0 | 0.00 | 0.00 | 0.00 | 83 | 1009.8 |
| 20260509052855 | 0 | 253 | 0.0 | 0.0 | 0.00 | 0.00 | 0.00 | 84 | 1009.9 |
| 20260509052351 | 1 | 253 | 0.0 | 0.0 | 0.00 | 0.00 | 0.00 | 84 | 1009.8 |
| 20260509051849 | 0 | 253 | 0.0 | 0.0 | 0.00 | 0.00 | 0.00 | 83 | 1010.0 |
| 20260509051347 | 0 | 253 | 0.0 | 0.0 | 0.00 | 0.00 | 0.00 | 84 | 1010.0 |
| 20260509050843 | 0 | 253 | 0.0 | 0.0 | 0.00 | 0.00 | 0.00 | 84 | 1009.9 |
| 20260509050340 | 0 | 253 | 0.0 | 0.0 | 0.00 | 0.00 | 0.00 | 86 | 1010.2 |
| 20260509045837 | 1 | 253 | 0.0 | 0.0 | 0.00 | 0.00 | 0.00 | 85 | 1010.0 |
| 20260509045334 | 0 | 253 | 0.0 | 0.0 | 0.00 | 0.00 | 0.00 | 84 | 1010.4 |
| 20260509044831 | 0 | 253 | 0.0 | 0.0 | 0.00 | 0.00 | 0.00 | 88 | 1010.2 |
| 20260509044329 | 0 | 253 | 0.0 | 0.0 | 0.00 | 0.00 | 0.00 | 88 | 1010.2 |
| 20260509043825 | 0 | 253 | 0.0 | 0.0 | 0.00 | 0.00 | 0.00 | 89 | 1010.3 |
| 20260509043321 | 0 | 253 | 0.0 | 0.0 | 0.00 | 0.00 | 0.00 | 89 | 1010.3 |
| 20260509042817 | 0 | 253 | 0.0 | 0.0 | 0.00 | 0.00 | 0.00 | 89 | 1010.3 |
| 20260509042314 | 0 | 253 | 0.0 | 0.0 | 0.00 | 0.00 | 0.00 | 89 | 1010.3 |
| 20260509041810 | 1 | 253 | 0.0 | 0.0 | 0.00 | 0.00 | 0.00 | 86 | 1010.2 |
| 20260509041308 | 1 | 253 | 0.0 | 0.0 | 0.00 | 0.00 | 0.00 | 85 | 1010.2 |
| 20260509040806 | 0 | 253 | 0.0 | 0.0 | 0.00 | 0.00 | 0.00 | 84 | 1010.3 |
| 20260509040303 | 0 | 253 | 0.0 | 0.0 | 0.00 | 0.00 | 0.00 | 85 | 1010.2 |
| 20260509035800 | 1 | 253 | 0.0 | 0.0 | 0.00 | 0.00 | 0.00 | 86 | 1010.0 |
| 20260509035256 | 1 | 253 | 0.0 | 0.0 | 0.00 | 0.00 | 0.00 | 84 | 1009.9 |
| 20260509034753 | 1 | 253 | 0.0 | 0.0 | 0.00 | 0.00 | 0.00 | 82 | 1010.3 |
| 20260509034251 | 1 | 253 | 0.0 | 0.0 | 0.00 | 0.00 | 0.00 | 82 | 1010.0 |
| 20260509033748 | 1 | 253 | 0.0 | 0.0 | 0.00 | 0.00 | 0.00 | 82 | 1010.0 |
| 20260509033245 | 1 | 253 | 0.0 | 0.0 | 0.00 | 0.00 | 0.00 | 83 | 1010.2 |
| 20260509032742 | 1 | 253 | 0.0 | 0.0 | 0.00 | 0.00 | 0.00 | 82 | 1010.3 |
| 20260509032238 | 1 | 253 | 0.0 | 0.0 | 0.00 | 0.00 | 0.00 | 82 | 1010.0 |
| 20260509031736 | 1 | 253 | 0.0 | 0.0 | 0.00 | 0.00 | 0.00 | 81 | 1010.3 |
| 20260509031234 | 2 | 253 | 0.0 | 0.0 | 0.00 | 0.00 | 0.00 | 80 | 1010.2 |
| 20260509030731 | 2 | 253 | 0.0 | 0.0 | 0.00 | 0.00 | 0.00 | 80 | 1010.2 |
| 20260509030229 | 2 | 253 | 0.0 | 0.0 | 0.00 | 0.00 | 0.00 | 79 | 1010.4 |
| 20260509025725 | 2 | 253 | 0.0 | 0.0 | 0.00 | 0.00 | 0.00 | 80 | 1010.2 |
| 20260509025221 | 2 | 253 | 0.0 | 0.0 | 0.00 | 0.00 | 0.00 | 81 | 1010.3 |
| 20260509024717 | 2 | 253 | 0.0 | 0.0 | 0.00 | 0.00 | 0.00 | 79 | 1010.4 |
| 20260509024213 | 2 | 253 | 0.0 | 0.0 | 0.00 | 0.00 | 0.00 | 79 | 1010.5 |
| 20260509023710 | 2 | 253 | 0.0 | 0.0 | 0.00 | 0.00 | 0.00 | 79 | 1010.5 |
| 20260509023207 | 2 | 253 | 0.0 | 0.0 | 0.00 | 0.00 | 0.00 | 79 | 1010.6 |
| 20260509022703 | 3 | 253 | 0.0 | 0.0 | 0.00 | 0.00 | 0.00 | 78 | 1010.4 |
| 20260509022201 | 3 | 253 | 0.0 | 0.0 | 0.00 | 0.00 | 0.00 | 77 | 1010.6 |
| 20260509021658 | 3 | 253 | 0.0 | 0.0 | 0.00 | 0.00 | 0.00 | 77 | 1010.5 |
| 20260509021155 | 3 | 253 | 0.0 | 0.0 | 0.00 | 0.00 | 0.00 | 75 | 1010.6 |
| 20260509020654 | 3 | 253 | 0.0 | 0.0 | 0.00 | 0.00 | 0.00 | 74 | 1010.5 |
| 20260509020150 | 4 | 253 | 0.0 | 0.0 | 0.00 | 0.00 | 0.00 | 72 | 1010.5 |
| 20260509015649 | 4 | 253 | 0.0 | 0.0 | 0.00 | 0.00 | 0.00 | 69 | 1010.6 |
| 20260509015146 | 5 | 253 | 0.0 | 0.0 | 0.00 | 0.00 | 0.00 | 68 | 1010.4 |
| 20260509014642 | 5 | 253 | 0.0 | 0.0 | 0.00 | 0.00 | 0.00 | 67 | 1010.4 |
| 20260509014139 | 5 | 253 | 0.0 | 0.0 | 0.00 | 0.00 | 0.00 | 67 | 1010.4 |
| 20260509013636 | 4 | 253 | 0.0 | 0.0 | 0.00 | 0.00 | 0.00 | 68 | 1010.3 |
| 20260509013131 | 5 | 253 | 0.0 | 0.0 | 0.00 | 0.00 | 0.00 | 69 | 1010.4 |
| 20260509012628 | 5 | 253 | 0.0 | 0.0 | 0.00 | 0.00 | 0.00 | 67 | 1010.4 |
| 20260509012125 | 5 | 253 | 0.0 | 0.0 | 0.00 | 0.00 | 0.00 | 64 | 1009.9 |
| 20260509011623 | 5 | 253 | 0.0 | 0.0 | 0.00 | 0.00 | 0.00 | 64 | 1010.2 |
| 20260509011120 | 5 | 253 | 0.0 | 0.0 | 0.00 | 0.00 | 0.00 | 64 | 1010.2 |
| 20260509010618 | 5 | 253 | 0.0 | 0.0 | 0.00 | 0.00 | 0.00 | 63 | 1010.0 |
| 20260509010114 | 5 | 253 | 0.0 | 0.0 | 0.00 | 0.00 | 0.00 | 62 | 1009.9 |
| 20260509005612 | 5 | 253 | 0.0 | 0.0 | 0.00 | 0.00 | 0.00 | 62 | 1010.0 |
| 20260509005108 | 6 | 253 | 0.0 | 0.0 | 0.00 | 0.00 | 0.00 | 61 | 1009.9 |
| 20260509004604 | 6 | 253 | 0.0 | 0.0 | 0.00 | 0.00 | 0.00 | 60 | 1010.0 |
| 20260509004101 | 6 | 253 | 0.0 | 0.0 | 0.00 | 0.00 | 0.00 | 60 | 1009.9 |
| 20260509003559 | 7 | 253 | 0.0 | 0.0 | 0.00 | 0.00 | 0.00 | 57 | 1009.8 |
| 20260509003056 | 7 | 253 | 0.0 | 0.0 | 0.00 | 0.00 | 0.00 | 56 | 1009.9 |
| 20260509002554 | 7 | 253 | 0.0 | 0.0 | 0.00 | 0.00 | 0.00 | 55 | 1009.8 |
| 20260509002051 | 7 | 253 | 0.0 | 0.0 | 0.00 | 0.00 | 0.00 | 54 | 1009.8 |
| 20260509001548 | 7 | 253 | 0.0 | 0.0 | 0.00 | 0.00 | 0.00 | 52 | 1009.8 |
| 20260509001044 | 7 | 253 | 0.0 | 0.0 | 0.00 | 0.00 | 0.00 | 52 | 1009.8 |
| 20260509000543 | 8 | 253 | 1.6 | 3.2 | 0.00 | 0.00 | 0.00 | 51 | 1009.9 |
| 20260509000038 | 8 | 253 | 1.6 | 3.2 | 0.00 | 0.00 | 0.00 | 50 | 1009.7 |
| 20260508235537 | 8 | 262 | 3.2 | 3.2 | 0.00 | 0.00 | 0.00 | 49 | 1009.7 |
| 20260508235032 | 8 | 252 | 1.6 | 3.2 | 0.00 | 0.00 | 0.00 | 48 | 1009.7 |
| 20260508234530 | 8 | 251 | 1.6 | 1.6 | 0.00 | 0.00 | 0.00 | 49 | 1009.6 |
| 20260508234027 | 8 | 248 | 3.2 | 3.2 | 0.00 | 0.00 | 0.00 | 47 | 1009.6 |
| 20260508233526 | 9 | 277 | 1.6 | 1.6 | 0.00 | 0.00 | 0.00 | 47 | 1009.6 |
| 20260508233023 | 9 | 253 | 1.6 | 3.2 | 0.00 | 0.00 | 0.00 | 47 | 1009.6 |
| 20260508232520 | 9 | 254 | 3.2 | 4.8 | 0.00 | 0.00 | 0.00 | 47 | 1009.5 |
| 20260508232017 | 9 | 264 | 1.6 | 3.2 | 0.00 | 0.00 | 0.00 | 47 | 1009.6 |
| 20260508231514 | 9 | 251 | 0.0 | 1.6 | 0.00 | 0.00 | 0.00 | 46 | 1009.6 |
| 20260508231011 | 9 | 263 | 3.2 | 4.8 | 0.00 | 0.00 | 0.00 | 46 | 1009.7 |
| 20260508230508 | 10 | 266 | 3.2 | 3.2 | 0.00 | 0.00 | 0.00 | 44 | 1009.7 |
| 20260508230004 | 10 | 262 | 1.6 | 3.2 | 0.00 | 0.00 | 0.00 | 46 | 1009.5 |
| 20260508225502 | 10 | 245 | 3.2 | 3.2 | 0.00 | 0.00 | 0.00 | 45 | 1009.5 |
| 20260508224959 | 10 | 250 | 3.2 | 3.2 | 0.00 | 0.00 | 0.00 | 48 | 1009.6 |